Regional Weather Roundup
Issued by NWS Cleveland, OH

Home | Current Version | Previous Version | Graphics & Text | Print | Product List | Glossary On
Versions: 1 2 3 4 5 6 7 8 9 10 11 12 13 14 15 16 17 18 19 20 21 22 23 24 25 26 27 28 29 30 31 32 33 34 35 36 37 38 39 40 41 42 43 44 45 46 47 48 49 50
000
ASUS41 KCLE 021100
RWRCLE
OHIO REGIONAL WEATHER ROUNDUP
NATIONAL WEATHER SERVICE WILMINGTON, OH
700 AM EDT THU OCT 02 2014

NOTE: "FAIR" INDICATES FEW OR NO CLOUDS BELOW 12,000 FEET WITH NO
SIGNIFICANT WEATHER AND/OR OBSTRUCTIONS TO VISIBILITY.

OHZ001>008-015>018-024>027-034-035-043-044-021200-
   NORTHWEST OHIO

CITY           SKY/WX    TMP DP  RH WIND       PRES   REMARKS
DEFIANCE       PTCLDY    53  49  86 E3        30.01R
FINDLAY        MOCLDY    53  50  89 SE8       30.02S FOG
TOLEDO EXPRESS PTCLDY    50  49  96 CALM      30.04R FOG
TOLEDO METCALF CLEAR     50  48  93 SE3       30.05R
LIMA           PTCLDY    58  51  78 SE9       30.02R
$$

OHZ009>014-019>023-028>033-038-089-021200-
   NORTHEAST OHIO

CITY           SKY/WX    TMP DP  RH WIND       PRES   REMARKS
CLE-HOPKINS    CLEAR     49  48  97 CALM      30.07S FOG
CLE-LAKEFRONT  CLEAR     55  52  89 S9        30.04S FOG
CUY CO. ARPT   CLEAR     55  55 100 S9        30.06
LORAIN-ELYRIA  FOG       51  49  92 S5        30.06R VSB 1/4
ASHTABULA      FOG       50  50 100 SE3       30.08R VSB 1/4
AKRON-CANTON   FOG       51  49  92 SE3       30.07R VSB 1/8
WOOSTER        NOT AVBL
MANSFIELD      CLEAR     45  45 100 S6        30.06R FOG
YOUNGSTOWN     FOG       49  48  97 E8        30.07S VSB 1/4
$$

OHZ042-051>053-060>062-070>072-077>081-021200-
  SOUTHWEST OHIO

CITY           SKY/WX    TMP DP  RH WIND       PRES   REMARKS
CINC-COVINGTON PTCLDY    61  56  83 SE6       30.00F
CINC-LUNKEN    PTCLDY    53  53 100 CALM      30.02S
HAMILTON       PTCLDY    50  49  96 CALM      30.02S
DAYTON         NOT AVBL
WRIGHT-PAT AFB CLEAR     54  50  86 N2        30.03R
DAYTON GENERAL PTCLDY    55  52  89 E5        30.01S
WILMINGTON     CLEAR     54  49  83 E5        30.03S
$$

OHZ036-037-039>041-045>050-054>059-063>069-073>076-082>088-021200-
  CENTRAL AND SOUTHEAST OHIO

CITY           SKY/WX    TMP DP  RH WIND       PRES   REMARKS
COLUMBUS       PTCLDY    53  49  86 CALM      30.05S
OSU AIRPORT    PTCLDY    51  49  92 SE3       30.05S FOG
BOLTON FIELD   NOT AVBL
RICKENBACK AFB NOT AVBL
NEWARK         FOG       45  43  93 CALM      30.06S VSB 1/2
MARION         PTCLDY    50  48  93 S3        30.05R FOG
LANCASTER      PTCLDY    46  44  93 CALM      30.06S
ZANESVILLE     FOG       46  44  93 CALM      30.07S VSB 1/4
NEW PHILLY     FOG       50  50 100 E3        30.08S VSB 1/4
$$


USA.gov is the U.S. government's official web portal to all federal, state and local government web resources and services.